Location: Alpha Ridge Park
(39.3209°N, 76.9128°W)
Time: 09:14:29
(UTC-04:00)

Vanguard 2 Rocket - Pass Details

Date: 29 May 2019
Orbit: 555 x 3326 km, 32.9° (Epoch: 24 June)

Event Time Altitude Azimuth Distance (km) Brightness Sun altitude
Rises 10:33:32 0° 279° (W) 6,623 10.9 53.2°
Reaches altitude 10° 10:38:53 10° 273° (W) 5,203 10.5 54.2°
Maximum altitude 10:51:04 38° 213° (SSW) 2,433 9.5 56.4°
Drops below altitude 10° 10:58:27 10° 148° (SSE) 3,151 10.2 57.8°
Sets 11:00:54 0° 140° (SE) 3,827 10.5 58.2°
